This is the latest recevied weather packets stored in our database for station/object E25DQY-1. If no packets are shown the sender has not sent any weather packets the latest 10 day(s).
| Time | Temp. | Humidity | Pressure | Rain* | Wind** | Luminosity | Snow |
|---|---|---|---|---|---|---|---|
| 1788174870 | 23.33° C | 40% | 1003 hPa | - | - | 0 W/m² | - |
| 1788173048 | 23.89° C | 40% | 1003 hPa | - | - | 0 W/m² | - |
| 1788171226 | 24.44° C | 39% | 1003 hPa | - | - | 0 W/m² | - |
| 1788169404 | 25° C | 39% | 1003 hPa | - | - | 0 W/m² | - |
| 1788167581 | 25.56° C | 39% | 1003 hPa | - | - | 0 W/m² | - |
| 1788165759 | 26.11° C | 39% | 1003 hPa | - | - | 0 W/m² | - |
| 1788163937 | 27.22° C | 39% | 1003 hPa | - | - | 0 W/m² | - |
| 1788162115 | 28.33° C | 44% | 1003 hPa | - | - | 0 W/m² | - |
| 1788160293 | 29.44° C | 43% | 1004 hPa | - | - | 0 W/m² | - |
| 1788158472 | 30.56° C | 43% | 1003 hPa | - | - | 0 W/m² | - |
| 1788156650 | 31.11° C | 45% | 1004 hPa | - | - | 0 W/m² | - |
| 1788154828 | 30.56° C | 46% | 1004 hPa | - | - | 0 W/m² | - |
| 1788153005 | 30° C | 46% | 1005 hPa | - | - | 0 W/m² | - |
| 1788151183 | 29.44° C | 45% | 1005 hPa | - | - | 0 W/m² | - |
| 1788149361 | 29.44° C | 47% | 1005 hPa | - | - | 0 W/m² | - |
| 1788147539 | 28.89° C | 49% | 1005 hPa | - | - | 0 W/m² | - |
| 1788145717 | 27.78° C | 51% | 1006 hPa | - | - | 0 W/m² | - |
| 1788143895 | 27.22° C | 50% | 1006 hPa | - | - | 0 W/m² | - |
| 1788142073 | 26.67° C | 50% | 1006 hPa | - | - | 0 W/m² | - |
| 1788140251 | 26.11° C | 50% | 1006 hPa | - | - | 0 W/m² | - |
| 1788138429 | 26.11° C | 50% | 1005 hPa | - | - | 0 W/m² | - |
| 1788136607 | 26.67° C | 50% | 1005 hPa | - | - | 0 W/m² | - |
| 1788134785 | 27.22° C | 49% | 1005 hPa | - | - | 0 W/m² | - |
| 1788132963 | 29.44° C | 49% | 1004 hPa | - | - | 0 W/m² | - |
| 1788131141 | 32.22° C | 64% | 1004 hPa | - | - | 0 W/m² | - |
* Rain since midnight (hover to see other rain measurements)
** Current wind speed in m/s (hover to see current wind gust speed)